EW3370 Weather Reports


Display with metric or nautical units.
time (UTC)temp
F
wind
direction
speed
MPH
gust
MPH
rain 1hr
in
rain 24hr
in
rain mn
in
humidity
%
barometer
mb
20260901105535 68 123 2.0 3.0 0.00 0.00 0.00 88 1013.2
20260901105019 68 123 1.0 3.0 0.00 0.00 0.00 88 1013.2
20260901104527 68 123 1.0 3.0 0.00 0.00 0.00 88 1013.2
20260901104027 68 123 0.0 3.0 0.00 0.00 0.00 88 1013.2
20260901103524 68 123 1.0 3.0 0.00 0.00 0.00 88 1013.2
20260901103019 68 123 1.0 3.0 0.00 0.00 0.00 89 1013.2
20260901102520 68 123 1.0 2.0 0.00 0.00 0.00 89 1013.3
20260901102024 68 123 0.0 0.0 0.00 0.00 0.00 89 1013.3
20260901101527 68 123 0.0 1.0 0.00 0.00 0.00 89 1013.3
20260901101028 68 123 0.0 1.0 0.00 0.00 0.00 89 1013.2
20260901100532 68 123 1.0 1.0 0.00 0.00 0.00 89 1013.3
20260901100032 68 123 0.0 2.0 0.00 0.00 0.00 89 1013.4
20260901095538 68 123 0.0 2.0 0.00 0.00 0.00 89 1013.3
20260901095037 68 123 1.0 2.0 0.00 0.00 0.00 89 1013.3
20260901094518 68 123 1.0 2.0 0.00 0.00 0.00 89 1013.4
20260901094023 68 123 1.0 3.0 0.00 0.00 0.00 89 1013.5
20260901093526 68 123 0.0 3.0 0.00 0.00 0.00 89 1013.3
20260901093033 68 122 0.0 0.0 0.00 0.00 0.00 89 1013.2
20260901092528 68 122 0.0 0.0 0.00 0.00 0.00 89 1013.1
20260901092024 68 153 0.0 0.0 0.00 0.00 0.00 89 1013.1
20260901091530 68 153 0.0 0.0 0.00 0.00 0.00 89 1013.0
20260901091028 68 165 0.0 0.0 0.00 0.00 0.00 89 1013.1
20260901090553 68 165 0.0 0.0 0.00 0.00 0.00 90 1013.1
20260901090026 68 165 0.0 0.0 0.00 0.00 0.00 89 1013.1
20260901085550 68 165 0.0 0.0 0.00 0.00 0.00 89 1013.1
20260901085033 68 165 0.0 0.0 0.00 0.00 0.00 89 1013.1
20260901084540 68 165 0.0 0.0 0.00 0.00 0.00 89 1013.1
20260901084021 68 165 0.0 0.0 0.00 0.00 0.00 89 1013.2
20260901083522 68 165 0.0 0.0 0.00 0.00 0.00 89 1013.2
20260901083027 68 165 0.0 0.0 0.00 0.00 0.00 89 1013.3
20260901082531 68 165 0.0 0.0 0.00 0.00 0.00 89 1013.2
20260901082029 68 165 0.0 0.0 0.00 0.00 0.00 89 1013.3
20260901081518 69 165 0.0 0.0 0.00 0.00 0.00 89 1013.3
20260901081020 69 165 0.0 0.0 0.00 0.00 0.00 89 1013.2
20260901080545 69 165 0.0 0.0 0.00 0.00 0.00 89 1013.2
20260901080026 69 165 0.0 0.0 0.00 0.00 0.00 89 1013.2
20260901075533 69 165 0.0 0.0 0.00 0.00 0.00 89 1013.2
20260901075033 69 165 0.0 0.0 0.00 0.00 0.00 89 1013.3
20260901074559 69 165 0.0 0.0 0.00 0.00 0.00 89 1013.3
20260901074046 69 165 0.0 0.0 0.00 0.00 0.00 89 1013.4
20260901073519 69 165 0.0 0.0 0.00 0.00 0.00 89 1013.4
20260901073022 69 165 0.0 0.0 0.00 0.00 0.00 89 1013.4
20260901072523 69 165 0.0 0.0 0.00 0.00 0.00 89 1013.3
20260901072042 69 173 0.0 0.0 0.00 0.00 0.00 89 1013.3
20260901071519 69 173 0.0 0.0 0.00 0.00 0.00 89 1013.3
20260901071037 69 173 0.0 0.0 0.00 0.00 0.00 89 1013.3
20260901070542 69 173 0.0 0.0 0.00 0.00 0.00 89 1013.3
20260901070024 69 172 0.0 0.0 0.00 0.00 0.00 89 1013.3
20260901065532 69 172 0.0 0.0 0.00 0.00 0.00 89 1013.3
20260901065030 69 172 0.0 2.0 0.00 0.00 0.00 89 1013.3
20260901064530 69 172 0.0 2.0 0.00 0.00 0.00 89 1013.3
20260901064025 69 172 0.0 2.0 0.00 0.00 0.00 89 1013.3
20260901063551 69 172 0.0 0.0 0.00 0.00 0.00 89 1013.3
20260901063026 69 171 0.0 0.0 0.00 0.00 0.00 89 1013.2
20260901062553 69 171 0.0 0.0 0.00 0.00 0.00 89 1013.2
20260901062032 69 171 0.0 0.0 0.00 0.00 0.00 88 1013.2
20260901061519 69 171 0.0 0.0 0.00 0.00 0.00 88 1013.1
20260901061022 69 171 0.0 0.0 0.00 0.00 0.00 88 1013.1
20260901060548 69 171 0.0 0.0 0.00 0.00 0.00 88 1013.1
20260901060030 69 171 0.0 0.0 0.00 0.00 0.00 88 1013.2
20260901055524 70 171 0.0 0.0 0.00 0.00 0.00 88 1013.1
20260901055050 70 171 0.0 0.0 0.00 0.00 0.00 88 1013.1
20260901054531 70 170 0.0 0.0 0.00 0.00 0.00 88 1013.1
20260901054037 70 170 0.0 0.0 0.00 0.00 0.00 88 1013.1
20260901053524 70 170 0.0 0.0 0.00 0.00 0.00 88 1013.1
20260901053029 70 169 0.0 0.0 0.00 0.00 0.00 88 1013.0
20260901052528 70 169 0.0 0.0 0.00 0.00 0.00 88 1013.0
20260901052031 70 169 0.0 0.0 0.00 0.00 0.00 88 1013.1
20260901051528 70 169 0.0 0.0 0.00 0.00 0.00 88 1013.0
20260901051024 70 170 0.0 0.0 0.00 0.00 0.00 88 1013.0
20260901050544 70 170 0.0 0.0 0.00 0.00 0.00 88 1013.0
20260901050027 70 169 0.0 0.0 0.00 0.00 0.00 88 1013.0
20260901045530 70 169 0.0 0.0 0.00 0.00 0.00 88 1013.0
20260901045050 70 169 0.0 0.0 0.00 0.00 0.00 88 1013.0
20260901044530 71 169 0.0 0.0 0.00 0.00 0.00 88 1013.0
20260901044026 71 168 0.0 0.0 0.00 0.00 0.00 88 1013.0
20260901043528 71 168 0.0 0.0 0.00 0.00 0.00 88 1013.0
20260901043033 71 168 0.0 0.0 0.00 0.00 0.00 88 1012.9
20260901042523 71 168 0.0 0.0 0.00 0.00 0.00 88 1012.9
20260901042018 71 167 0.0 1.0 0.00 0.00 0.00 88 1012.9
20260901041556 71 167 0.0 1.0 0.00 0.00 0.00 88 1012.9
20260901041019 71 167 0.0 0.0 0.00 0.00 0.00 88 1012.8
20260901040536 71 167 0.0 0.0 0.00 0.00 0.00 89 1012.8
20260901040056 71 167 0.0 0.0 0.00 0.00 0.00 88 1012.7
20260901035537 71 167 0.0 0.0 0.00 0.00 0.00 88 1012.5
20260901035056 71 167 0.0 0.0 0.00 0.00 0.00 88 1012.6
20260901034531 71 167 0.0 0.0 0.00 0.00 0.00 87 1012.5
20260901034030 71 167 0.0 0.0 0.00 0.00 0.00 87 1012.4
20260901033527 71 167 0.0 0.0 0.00 0.00 0.00 87 1012.3
20260901033031 71 167 0.0 0.0 0.00 0.00 0.00 87 1012.3
20260901032526 71 167 0.0 2.0 0.00 0.00 0.00 87 1012.2
20260901032024 71 167 0.0 2.0 0.00 0.00 0.00 87 1012.1
20260901031544 72 202 0.0 0.0 0.00 0.00 0.00 86 1011.9
20260901031028 72 202 0.0 0.0 0.00 0.00 0.00 86 1011.9
20260901030530 72 202 0.0 0.0 0.00 0.00 0.00 86 1011.9
20260901030036 72 202 0.0 3.0 0.00 0.00 0.00 86 1011.8
20260901025517 72 203 0.0 5.0 0.00 0.00 0.00 85 1011.8
20260901025039 72 204 1.0 5.0 0.00 0.00 0.00 85 1011.7
20260901024522 72 215 0.0 1.0 0.00 0.00 0.00 84 1011.7
20260901024026 72 216 0.0 2.0 0.00 0.00 0.00 84 1011.6
20260901023531 72 217 0.0 2.0 0.00 0.00 0.00 84 1011.6
20260901023037 73 217 0.0 2.0 0.00 0.00 0.00 83 1011.6
20260901022557 73 219 0.0 4.0 0.00 0.00 0.00 83 1011.5
20260901022034 73 220 1.0 4.0 0.00 0.00 0.00 82 1011.4
20260901021527 73 211 0.0 4.0 0.00 0.00 0.00 83 1011.4
20260901021026 73 201 1.0 5.0 0.00 0.00 0.00 82 1011.4
20260901020525 73 213 2.0 5.0 0.00 0.00 0.00 82 1011.3
20260901020024 74 204 1.0 4.0 0.00 0.00 0.00 81 1011.2
20260901015525 74 217 1.0 4.0 0.00 0.00 0.00 81 1011.2
20260901015020 74 244 1.0 5.0 0.00 0.00 0.00 81 1011.1
20260901014523 74 276 1.0 5.0 0.00 0.00 0.00 80 1011.1
20260901014033 75 213 2.0 5.0 0.00 0.00 0.00 80 1011.2
20260901013535 75 270 3.0 6.0 0.00 0.00 0.00 79 1011.2
20260901013100 75 231 2.0 6.0 0.00 0.00 0.00 78 1011.3
20260901012521 76 247 3.0 6.0 0.00 0.00 0.00 77 1011.3
20260901012045 76 225 2.0 6.0 0.00 0.00 0.00 77 1011.3
20260901011525 77 215 2.0 6.0 0.00 0.00 0.00 76 1011.3
20260901011047 77 207 2.0 7.0 0.00 0.00 0.00 76 1011.3
20260901010529 77 200 1.0 8.0 0.00 0.00 0.00 76 1011.4
20260901010052 77 302 1.0 8.0 0.00 0.00 0.00 75 1011.4
20260901005525 78 204 3.0 7.0 0.00 0.00 0.00 73 1011.5
20260901005045 78 267 2.0 7.0 0.00 0.00 0.00 73 1011.6
20260901004523 78 209 2.0 7.0 0.00 0.00 0.00 73 1011.6
20260901004049 79 259 4.0 7.0 0.00 0.00 0.00 73 1011.6
20260901003531 78 287 2.0 7.0 0.00 0.00 0.00 72 1011.7
20260901003031 78 235 3.0 7.0 0.00 0.00 0.00 72 1011.6
20260901002535 79 245 3.0 7.0 0.00 0.00 0.00 71 1011.7
20260901002041 79 262 1.0 6.0 0.00 0.00 0.00 70 1011.6
20260901001520 79 219 1.0 5.0 0.00 0.00 0.00 71 1011.7
20260901001037 79 205 1.0 8.0 0.00 0.00 0.00 72 1011.7
20260901000524 79 259 1.0 8.0 0.00 0.00 0.00 73 1011.7
20260901000046 79 242 3.0 8.0 0.00 0.00 0.00 72 1011.7
20260831235550 79 254 3.0 8.0 0.00 0.00 0.00 72 1011.6
20260831235031 79 248 2.0 8.0 0.00 0.00 0.00 73 1011.7
20260831234537 79 237 3.0 8.0 0.00 0.00 0.00 73 1011.8
20260831234036 79 241 4.0 9.0 0.00 0.00 0.00 74 1011.7
20260831233554 79 269 4.0 9.0 0.00 0.00 0.00 73 1011.7
20260831233038 79 211 3.0 11.0 0.00 0.00 0.00 74 1011.7
20260831232535 79 229 3.0 11.0 0.00 0.00 0.00 74 1011.6
20260831232022 79 234 4.0 10.0 0.00 0.00 0.00 73 1011.7
20260831231525 80 212 5.0 10.0 0.00 0.00 0.00 72 1011.7
20260831231029 80 286 5.0 9.0 0.00 0.00 0.00 72 1011.7
20260831230530 80 270 3.0 10.0 0.00 0.00 0.00 72 1011.8
20260831230021 81 268 5.0 10.0 0.00 0.00 0.00 71 1011.8
20260831225525 81 244 4.0 8.0 0.00 0.00 0.00 71 1011.8
20260831225028 81 229 5.0 10.0 0.00 0.00 0.00 71 1011.9
20260831224529 81 227 5.0 11.0 0.00 0.00 0.00 71 1012.0
20260831224029 81 240 3.0 11.0 0.00 0.00 0.00 72 1012.0
20260831223530 81 315 5.0 11.0 0.00 0.00 0.00 71 1011.9
20260831223026 81 278 5.0 11.0 0.00 0.00 0.00 71 1012.0
20260831222527 81 277 4.0 9.0 0.00 0.00 0.00 72 1012.1
20260831222036 81 282 5.0 11.0 0.00 0.00 0.00 72 1012.2
20260831221520 81 227 5.0 11.0 0.00 0.00 0.00 71 1012.2
20260831221023 81 262 5.0 10.0 0.00 0.00 0.00 71 1012.2
20260831220524 81 237 4.0 10.0 0.00 0.00 0.00 72 1012.3
20260831220029 81 286 4.0 11.0 0.00 0.00 0.00 72 1012.3
20260831215529 81 272 5.0 11.0 0.00 0.00 0.00 71 1012.3
20260831215034 81 227 5.0 9.0 0.00 0.00 0.00 71 1012.3
20260831214521 81 277 4.0 9.0 0.00 0.00 0.00 71 1012.3
20260831214023 81 218 4.0 10.0 0.00 0.00 0.00 71 1012.3
20260831213527 81 256 5.0 10.0 0.00 0.00 0.00 70 1012.3
20260831213034 82 299 5.0 10.0 0.00 0.00 0.00 70 1012.3
20260831212533 81 270 4.0 10.0 0.00 0.00 0.00 70 1012.4
20260831212038 82 270 4.0 10.0 0.00 0.00 0.00 69 1012.4
20260831211543 82 270 4.0 9.0 0.00 0.00 0.00 70 1012.4
20260831211020 81 260 5.0 9.0 0.00 0.00 0.00 69 1012.5
20260831210527 82 224 4.0 8.0 0.00 0.00 0.00 69 1012.6
20260831210022 82 188 3.0 9.0 0.00 0.00 0.00 69 1012.7
20260831205524 82 247 5.0 8.0 0.00 0.00 0.00 69 1012.8
20260831205021 82 262 2.0 12.0 0.00 0.00 0.00 69 1012.8
20260831204526 82 271 5.0 12.0 0.00 0.00 0.00 68 1012.8
20260831204027 83 243 3.0 10.0 0.00 0.00 0.00 68 1012.9
20260831203530 83 232 2.0 9.0 0.00 0.00 0.00 67 1012.8
20260831203048 83 223 3.0 9.0 0.00 0.00 0.00 68 1012.9
20260831202522 83 225 2.0 7.0 0.00 0.00 0.00 68 1012.8
20260831202025 83 194 3.0 8.0 0.00 0.00 0.00 67 1012.9
20260831201527 83 248 3.0 10.0 0.00 0.00 0.00 67 1013.0
20260831201052 83 206 3.0 10.0 0.00 0.00 0.00 68 1012.9
20260831200535 82 210 3.0 7.0 0.00 0.00 0.00 68 1012.9
20260831200031 83 196 5.0 8.0 0.00 0.00 0.00 67 1012.9
20260831195533 83 225 4.0 7.0 0.00 0.00 0.00 67 1012.9
20260831195037 82 219 3.0 8.0 0.00 0.00 0.00 68 1012.9
20260831194536 83 213 3.0 8.0 0.00 0.00 0.00 68 1012.9
20260831194036 82 242 2.0 7.0 0.00 0.00 0.00 68 1013.0
20260831193533 82 207 3.0 11.0 0.00 0.00 0.00 68 1013.0
20260831193031 82 226 3.0 11.0 0.00 0.00 0.00 68 1013.0
20260831192525 82 207 2.0 11.0 0.00 0.00 0.00 68 1013.1
20260831192018 82 188 2.0 9.0 0.00 0.00 0.00 69 1013.1
20260831191539 82 244 3.0 9.0 0.00 0.00 0.00 69 1013.1
20260831191034 82 201 1.0 8.0 0.00 0.00 0.00 70 1013.1
20260831190554 81 235 5.0 8.0 0.00 0.00 0.00 70 1013.1
20260831190029 82 268 4.0 8.0 0.00 0.00 0.00 69 1013.1
20260831185532 82 216 2.0 9.0 0.00 0.00 0.00 69 1013.2
20260831185030 81 227 2.0 9.0 0.00 0.00 0.00 71 1013.1
20260831184543 81 203 1.0 9.0 0.00 0.00 0.00 71 1013.1
20260831184035 81 211 4.0 9.0 0.00 0.00 0.00 71 1013.1
20260831183537 81 213 3.0 8.0 0.00 0.00 0.00 71 1013.1
20260831183054 81 222 3.0 8.0 0.00 0.00 0.00 70 1013.2
20260831182529 81 205 3.0 9.0 0.00 0.00 0.00 70 1013.2
20260831182030 81 188 3.0 9.0 0.00 0.00 0.00 70 1013.2
20260831181526 81 224 4.0 7.0 0.00 0.00 0.00 69 1013.1
20260831181029 81 194 4.0 8.0 0.00 0.00 0.00 70 1013.1
20260831180545 81 198 3.0 7.0 0.00 0.00 0.00 70 1013.1
20260831180034 81 236 4.0 7.0 0.00 0.00 0.00 70 1013.1
20260831175532 81 205 1.0 7.0 0.00 0.00 0.00 70 1013.1
20260831175030 81 205 1.0 7.0 0.00 0.00 0.00 69 1013.1
20260831174530 82 206 1.0 7.0 0.00 0.00 0.00 70 1013.0
20260831174050 81 195 0.0 5.0 0.00 0.00 0.00 70 1013.0
20260831173546 81 225 0.0 7.0 0.00 0.00 0.00 71 1013.0
20260831173018 81 256 1.0 7.0 0.00 0.00 0.00 70 1012.9
20260831172537 81 209 0.0 1.0 0.00 0.00 0.00 70 1012.9
20260831172036 81 219 0.0 4.0 0.00 0.00 0.00 71 1012.9
20260831171533 80 229 0.0 4.0 0.00 0.00 0.00 70 1012.9
20260831171054 80 195 0.0 2.0 0.00 0.00 0.00 71 1012.8
20260831170532 80 211 0.0 2.0 0.00 0.00 0.00 71 1012.8
20260831170036 80 203 0.0 0.0 0.00 0.00 0.00 70 1012.9
20260831165538 81 212 0.0 0.0 0.00 0.00 0.00 70 1012.8
20260831165038 80 143 0.0 0.0 0.00 0.00 0.00 70 1012.8
20260831164535 80 218 0.0 0.0 0.00 0.00 0.00 71 1012.7
20260831164034 80 223 0.0 0.0 0.00 0.00 0.00 71 1012.7
20260831163532 80 224 0.0 0.0 0.00 0.00 0.00 70 1012.7
20260831163031 80 205 0.0 0.0 0.00 0.00 0.00 71 1012.7
20260831162529 80 192 0.0 0.0 0.00 0.00 0.00 71 1012.6
20260831162053 79 192 0.0 0.0 0.00 0.00 0.00 72 1012.6
20260831161527 79 210 0.0 0.0 0.00 0.00 0.00 72 1012.6
20260831161026 79 211 0.0 0.0 0.00 0.00 0.00 72 1012.6
20260831160545 79 143 0.0 0.0 0.00 0.00 0.00 72 1012.6
20260831160020 78 143 0.0 0.0 0.00 0.00 0.00 72 1012.6
20260831155537 78 143 0.0 0.0 0.00 0.00 0.00 74 1012.7
20260831155056 78 143 0.0 0.0 0.00 0.00 0.00 73 1012.7
20260831154556 77 137 0.0 0.0 0.00 0.00 0.00 75 1012.7
20260831154032 77 137 0.0 0.0 0.00 0.00 0.00 76 1012.7
20260831153527 76 140 0.0 0.0 0.00 0.00 0.00 77 1012.7
20260831153027 75 140 0.0 0.0 0.00 0.00 0.00 78 1012.7
20260831152527 75 140 0.0 0.0 0.00 0.00 0.00 77 1012.6
20260831152021 75 142 0.0 0.0 0.00 0.00 0.00 78 1012.6
20260831151520 75 96 0.0 0.0 0.00 0.00 0.00 79 1012.5
20260831151036 75 96 0.0 0.0 0.00 0.00 0.00 79 1012.6
20260831150534 75 96 0.0 0.0 0.00 0.00 0.00 79 1012.5
20260831150033 75 96 0.0 0.0 0.00 0.00 0.00 79 1012.5
20260831145533 74 96 0.0 0.0 0.00 0.00 0.00 81 1012.5
20260831145029 74 98 0.0 0.0 0.00 0.00 0.00 82 1012.4
20260831144529 73 101 0.0 0.0 0.00 0.00 0.00 83 1012.5
20260831144023 72 103 0.0 0.0 0.00 0.00 0.00 84 1012.4
20260831143520 71 107 0.0 0.0 0.00 0.00 0.00 85 1012.3
20260831143038 71 109 0.0 0.0 0.00 0.00 0.00 85 1012.3
20260831142535 71 109 0.0 0.0 0.00 0.00 0.00 85 1012.2
20260831142035 71 110 0.0 0.0 0.00 0.00 0.00 85 1012.2
20260831141554 71 110 0.0 0.0 0.00 0.00 0.00 84 1012.2
20260831141032 71 110 0.0 0.0 0.00 0.00 0.00 84 1012.1
20260831140552 71 110 0.0 0.0 0.00 0.00 0.00 84 1012.0
20260831140030 71 110 0.0 0.0 0.00 0.00 0.00 84 1011.9
20260831135526 71 111 0.0 0.0 0.00 0.00 0.00 84 1011.8
20260831135027 71 111 0.0 0.0 0.00 0.00 0.00 84 1011.8
20260831134525 71 111 0.0 0.0 0.00 0.00 0.00 84 1011.7
20260831134019 71 111 0.0 0.0 0.00 0.00 0.00 84 1011.6
20260831133537 71 111 0.0 0.0 0.00 0.00 0.00 84 1011.6
20260831133033 71 111 0.0 0.0 0.00 0.00 0.00 84 1011.6
20260831132530 71 112 0.0 0.0 0.00 0.00 0.00 84 1011.6
20260831132025 71 112 0.0 0.0 0.00 0.00 0.00 84 1011.6
20260831131544 71 112 0.0 0.0 0.00 0.00 0.00 84 1011.4
20260831131020 71 113 0.0 1.0 0.00 0.00 0.00 85 1011.4
20260831130537 71 111 0.0 2.0 0.00 0.00 0.00 85 1011.4
20260831130034 71 117 0.0 4.0 0.00 0.00 0.00 85 1011.4
20260831125531 71 119 2.0 4.0 0.00 0.00 0.00 85 1011.3
20260831125030 71 116 0.0 4.0 0.00 0.00 0.00 86 1011.3
20260831124528 71 119 1.0 4.0 0.00 0.00 0.00 86 1011.3
20260831124048 71 122 0.0 0.0 0.00 0.00 0.00 87 1011.3
20260831123532 71 126 0.0 0.0 0.00 0.00 0.00 87 1011.2
20260831123030 71 180 0.0 0.0 0.00 0.00 0.00 88 1011.3
20260831122528 71 180 0.0 0.0 0.00 0.00 0.00 89 1011.2
20260831122033 71 180 0.0 0.0 0.00 0.00 0.00 89 1011.2
20260831121520 71 180 0.0 0.0 0.00 0.00 0.00 89 1011.2
20260831121020 71 180 0.0 0.0 0.00 0.00 0.00 89 1011.2
20260831120559 71 180 0.0 0.0 0.00 0.00 0.00 89 1011.1
20260831120037 70 180 0.0 0.0 0.00 0.00 0.00 89 1011.2
20260831115521 70 180 0.0 0.0 0.00 0.00 0.00 89 1011.2
20260831115028 70 180 0.0 0.0 0.00 0.00 0.00 89 1011.2
20260831114531 70 180 0.0 0.0 0.00 0.00 0.00 89 1011.2
20260831114028 70 180 0.0 0.0 0.00 0.00 0.00 90 1011.3
20260831113533 70 180 0.0 0.0 0.00 0.00 0.00 90 1011.2
20260831113033 70 180 0.0 0.0 0.00 0.00 0.00 90 1011.3
20260831112530 70 179 0.0 0.0 0.00 0.00 0.00 90 1011.3
20260831112029 70 179 0.0 0.0 0.00 0.00 0.00 90 1011.4
20260831111533 70 179 0.0 0.0 0.00 0.00 0.00 90 1011.4
20260831111031 70 179 0.0 0.0 0.00 0.00 0.00 91 1011.4
20260831110534 70 179 0.0 0.0 0.00 0.00 0.00 91 1011.4
20260831110028 70 178 0.0 0.0 0.00 0.00 0.00 91 1011.4